When you browse on this site, cookies collect data to enhance your experience and personalize the content and advertising you see.
Visit our Privacy Policy to learn more. By continuing to use the site, you agree to this use of cookies and data.
  • In Hungary
  • List of Countries
  • For 7 days
  • Water Temperature
  • Weather Map
  • News
  • Weather Widgets
  • user-avatar
    Login

    Hourly Weather Bolshoe Kozhuhovo

    Today, 27 January, Monday

    Time Temperature Precipitation Wind Pressure Humidity
    00:00 -4°C° 0.1 mm 8 mps 745 mmHg 88%
    01:00 -2°C° 0.1 mm 8 mps 745 mmHg 90%
    02:00 -2°C° 0.1 mm 8 mps 745 mmHg 92%
    03:00 -1°C° 0 mm 8 mps 744 mmHg 92%
    04:00 -1°C° 0 mm 8 mps 744 mmHg 93%
    05:00 -1°C° 0 mm 8 mps 745 mmHg 93%
    06:00 -1°C° 0 mm 7 mps 745 mmHg 94%
    07:00 -1°C° 0.1 mm 7 mps 746 mmHg 94%
    08:00 -2°C° 0.1 mm 6 mps 746 mmHg 95%
    09:00 -1°C° 0.1 mm 5 mps 747 mmHg 96%
    10:00 -1°C° 0.1 mm 4 mps 747 mmHg 92%
    11:00 -2°C° 0.1 mm 4 mps 748 mmHg 89%
    12:00 -1°C° 0.1 mm 3 mps 749 mmHg 86%
    13:00 -1°C° 0 mm 3 mps 749 mmHg 85%
    14:00 -2°C° 0 mm 2 mps 750 mmHg 83%
    15:00 -2°C° 0 mm 2 mps 750 mmHg 82%
    16:00 -2°C° 0 mm 2 mps 751 mmHg 83%
    17:00 -1°C° 0 mm 1 mps 751 mmHg 84%
    18:00 -2°C° 0 mm 1 mps 751 mmHg 84%
    19:00 -4°C° 0 mm 2 mps 752 mmHg 84%
    20:00 -4°C° 0 mm 2 mps 752 mmHg 83%
    21:00 -6°C° 0 mm 3 mps 752 mmHg 83%
    22:00 -6°C° 0 mm 3 mps 752 mmHg 82%
    23:00 -6°C° 0 mm 3 mps 752 mmHg 82%

    Tomorrow, 28 January, Tuesday

    Time Temperature Precipitation Wind Pressure Humidity
    00:00 -7°C° 0 mm 4 mps 752 mmHg 82%
    01:00 -8°C° 0.3 mm 4 mps 752 mmHg 86%
    02:00 -8°C° 0.3 mm 5 mps 752 mmHg 89%
    03:00 -8°C° 0.3 mm 5 mps 752 mmHg 93%
    04:00 -8°C° 0.4 mm 5 mps 751 mmHg 93%
    05:00 -8°C° 0.4 mm 5 mps 751 mmHg 94%
    06:00 -8°C° 0.4 mm 5 mps 751 mmHg 94%
    07:00 -9°C° 0.4 mm 6 mps 751 mmHg 94%
    08:00 -9°C° 0.4 mm 6 mps 751 mmHg 94%
    09:00 -9°C° 0.4 mm 6 mps 750 mmHg 94%
    10:00 -7°C° 0.4 mm 5 mps 750 mmHg 94%
    11:00 -7°C° 0.4 mm 5 mps 750 mmHg 94%
    12:00 -6°C° 0.4 mm 5 mps 750 mmHg 94%
    13:00 -6°C° 0.2 mm 5 mps 750 mmHg 95%
    14:00 -6°C° 0.2 mm 5 mps 749 mmHg 95%
    15:00 -4°C° 0.2 mm 4 mps 749 mmHg 96%
    16:00 -4°C° 0.2 mm 4 mps 749 mmHg 96%
    17:00 -4°C° 0.2 mm 3 mps 749 mmHg 96%
    18:00 -4°C° 0.2 mm 3 mps 749 mmHg 97%
    19:00 -2°C° 0.1 mm 3 mps 749 mmHg 97%
    20:00 -2°C° 0.1 mm 3 mps 749 mmHg 97%
    21:00 -2°C° 0.1 mm 3 mps 749 mmHg 97%
    22:00 -2°C° 0.2 mm 3 mps 749 mmHg 97%
    23:00 -2°C° 0.2 mm 3 mps 749 mmHg 97%

    Day after tomorrow, 29 January, Wednesday

    Time Temperature Precipitation Wind Pressure Humidity
    00:00 -2°C° 0.2 mm 3 mps 749 mmHg 97%
    01:00 -2°C° 0.1 mm 3 mps 748 mmHg 97%
    02:00 -2°C° 0.1 mm 3 mps 748 mmHg 97%
    03:00 -2°C° 0.1 mm 3 mps 748 mmHg 97%
    04:00 -2°C° 0 mm 3 mps 748 mmHg 97%
    05:00 -2°C° 0 mm 3 mps 748 mmHg 96%
    06:00 -2°C° 0 mm 3 mps 748 mmHg 96%
    07:00 -2°C° 0 mm 3 mps 748 mmHg 96%
    08:00 -2°C° 0 mm 2 mps 748 mmHg 96%
    09:00 -1°C° 0 mm 2 mps 748 mmHg 96%
    10:00 -1°C° 0 mm 3 mps 748 mmHg 97%
    11:00 -1°C° 0 mm 3 mps 748 mmHg 98%
    12:00 0°C° 0 mm 3 mps 748 mmHg 99%
    13:00 0°C° 0 mm 3 mps 748 mmHg 99%
    14:00 0°C° 0 mm 3 mps 747 mmHg 99%
    15:00 0°C° 0 mm 3 mps 747 mmHg 99%
    16:00 0°C° 0 mm 3 mps 747 mmHg 99%
    17:00 -1°C° 0 mm 4 mps 747 mmHg 98%
    18:00 -1°C° 0 mm 4 mps 746 mmHg 98%
    19:00 -1°C° 0.1 mm 4 mps 746 mmHg 98%
    20:00 -1°C° 0.1 mm 5 mps 746 mmHg 98%
    21:00 -1°C° 0.1 mm 5 mps 745 mmHg 98%
    22:00 -1°C° 0.1 mm 5 mps 745 mmHg 98%
    23:00 -2°C° 0.1 mm 6 mps 745 mmHg 97%

    30 January, Thursday

    Time Temperature Precipitation Wind Pressure Humidity
    00:00 -2°C° 0.1 mm 6 mps 744 mmHg 97%
    01:00 -2°C° 0.2 mm 6 mps 744 mmHg 97%
    02:00 -3°C° 0.2 mm 7 mps 743 mmHg 96%
    03:00 -3°C° 0.2 mm 7 mps 743 mmHg 96%
    04:00 -4°C° 0.2 mm 7 mps 742 mmHg 96%
    05:00 -4°C° 0.2 mm 7 mps 742 mmHg 96%
    06:00 -4°C° 0.2 mm 6 mps 741 mmHg 96%
    07:00 -3°C° 0.5 mm 7 mps 741 mmHg 96%
    08:00 -3°C° 0.5 mm 7 mps 740 mmHg 96%
    09:00 -2°C° 0.5 mm 7 mps 740 mmHg 97%
    10:00 -2°C° 0.5 mm 7 mps 740 mmHg 97%
    11:00 -2°C° 0.5 mm 7 mps 739 mmHg 97%
    12:00 -2°C° 0.5 mm 6 mps 739 mmHg 97%
    13:00 -2°C° 0.1 mm 6 mps 739 mmHg 95%
    14:00 -2°C° 0.1 mm 6 mps 739 mmHg 92%
    15:00 -2°C° 0.1 mm 6 mps 739 mmHg 90%
    16:00 -3°C° 0 mm 6 mps 739 mmHg 91%
    17:00 -3°C° 0 mm 6 mps 739 mmHg 91%
    18:00 -2°C° 0 mm 5 mps 739 mmHg 92%
    19:00 -3°C° 0.1 mm 6 mps 738 mmHg 93%
    20:00 -3°C° 0.1 mm 6 mps 738 mmHg 95%
    21:00 -4°C° 0.1 mm 6 mps 738 mmHg 96%
    22:00 -3°C° 0.3 mm 6 mps 738 mmHg 96%
    23:00 -3°C° 0.3 mm 7 mps 737 mmHg 96%

    31 January, Friday

    Time Temperature Precipitation Wind Pressure Humidity
    00:00 -3°C° 0.3 mm 7 mps 737 mmHg 95%
    01:00 -3°C° 0.3 mm 7 mps 737 mmHg 96%
    02:00 -3°C° 0.3 mm 6 mps 737 mmHg 96%
    03:00 -3°C° 0.3 mm 6 mps 736 mmHg 96%
    04:00 -3°C° 0.4 mm 6 mps 736 mmHg 97%
    05:00 -2°C° 0.4 mm 5 mps 736 mmHg 97%
    06:00 -2°C° 0.4 mm 5 mps 736 mmHg 97%
    07:00 -3°C° 0.4 mm 4 mps 736 mmHg 97%
    08:00 -2°C° 0.4 mm 3 mps 736 mmHg 97%
    09:00 -2°C° 0.4 mm 2 mps 736 mmHg 97%
    10:00 -2°C° 0.1 mm 2 mps 736 mmHg 97%
    11:00 -1°C° 0.1 mm 2 mps 737 mmHg 97%
    12:00 -1°C° 0.1 mm 2 mps 737 mmHg 96%
    13:00 -1°C° 0.1 mm 3 mps 737 mmHg 95%
    14:00 -1°C° 0.1 mm 3 mps 738 mmHg 95%
    15:00 -2°C° 0.1 mm 4 mps 738 mmHg 94%
    16:00 -2°C° 0.1 mm 4 mps 738 mmHg 94%
    17:00 -3°C° 0.1 mm 4 mps 739 mmHg 94%
    18:00 -3°C° 0.1 mm 4 mps 740 mmHg 94%
    19:00 -4°C° 0 mm 4 mps 740 mmHg 94%
    20:00 -4°C° 0 mm 3 mps 740 mmHg 94%
    21:00 -5°C° 0 mm 3 mps 741 mmHg 94%
    22:00 -5°C° 0 mm 3 mps 741 mmHg 94%
    23:00 -4°C° 0 mm 3 mps 742 mmHg 93%

    1 February, Saturday

    Time Temperature Precipitation Wind Pressure Humidity
    00:00 -3°C° 0 mm 2 mps 742 mmHg 93%
    01:00 -3°C° 0 mm 2 mps 743 mmHg 91%
    02:00 -3°C° 0 mm 2 mps 743 mmHg 90%
    03:00 -3°C° 0 mm 2 mps 743 mmHg 89%
    04:00 -3°C° 0 mm 2 mps 744 mmHg 89%
    05:00 -3°C° 0 mm 2 mps 744 mmHg 89%
    06:00 -3°C° 0 mm 2 mps 744 mmHg 88%
    07:00 -3°C° 0 mm 2 mps 744 mmHg 89%
    08:00 -4°C° 0 mm 2 mps 745 mmHg 89%
    09:00 -4°C° 0 mm 2 mps 745 mmHg 89%
    10:00 -3°C° 0 mm 2 mps 745 mmHg 90%
    11:00 -3°C° 0 mm 2 mps 745 mmHg 91%
    12:00 -3°C° 0 mm 2 mps 746 mmHg 91%
    13:00 -2°C° 0 mm 2 mps 746 mmHg 92%
    14:00 -2°C° 0 mm 2 mps 745 mmHg 92%
    15:00 -2°C° 0 mm 3 mps 745 mmHg 93%
    16:00 -2°C° 0 mm 3 mps 745 mmHg 92%
    17:00 -2°C° 0 mm 3 mps 746 mmHg 90%
    18:00 -2°C° 0 mm 3 mps 746 mmHg 89%
    19:00 -4°C° 0 mm 3 mps 745 mmHg 90%
    20:00 -5°C° 0 mm 3 mps 745 mmHg 90%
    21:00 -5°C° 0 mm 3 mps 745 mmHg 91%
    22:00 -5°C° 0 mm 4 mps 745 mmHg 92%
    23:00 -5°C° 0 mm 4 mps 745 mmHg 93%
    Show more